Location: Dvur Kralove nad Labem
(50.4330°N, 15.8170°E)
Time: 15:02:47
(UTC+02:00)

ISS - Pass Details

Date: 20 May 2018
Orbit: 402 x 407 km, 51.6° (Epoch: 24 May)

Event Time Altitude Azimuth Distance (km) Brightness Sun altitude
Rises 03:12:53 0° 285° (WNW) 2,320 -0.2 -13.2°
Reaches altitude 10° 03:14:58 10° 284° (WNW) 1,458 -1.2 -13.0°
Maximum altitude 03:18:13 72° 200° (SSW) 428 -4.0 -12.7°
Drops below altitude 10° 03:21:28 10° 115° (ESE) 1,454 -0.9 -12.4°
Sets 03:23:33 0° 114° (ESE) 2,311 0.2 -12.2°
